Location: Écuvilly
(49.6505°N, 2.9206°E)
Time: 23:48:26
(UTC+00:00)

COSMOS 2406 - Visible Passes

Search period start: 10 February 2026 00:00
Search period end: 20 February 2026 00:00
Orbit: 843 x 861 km, 71.0° (Epoch: 10 February)

Date Brightness Start Highest point End Pass type
(mag) Time Alt. Az. Time Alt. Az. Time Alt. Az.
10 Feb 5.4 18:06:15 10° W 18:10:28 21° NW 18:14:42 10° N visible
11 Feb 5.3 17:54:18 10° W 17:58:30 21° NW 18:02:44 10° N visible
12 Feb 5.3 17:42:21 10° W 17:46:32 20° NW 17:50:47 10° N visible
13 Feb 5.3 17:30:24 10° W 17:34:35 20° NW 17:38:49 10° N visible
16 Feb 5.7 20:32:16 10° N 20:32:30 10° NNE 20:32:30 10° NNE visible
16 Feb 6.1 22:14:31 10° NNW 22:14:32 10° NNW 22:14:32 10° NNW visible
17 Feb 5.7 20:20:17 10° N 20:20:53 10° NNE 20:20:53 10° NNE visible
17 Feb 6.0 22:02:33 10° NNW 22:02:54 11° NNW 22:02:54 11° NNW visible
18 Feb 5.6 20:08:17 10° N 20:09:02 10° NNE 20:09:15 10° NNE visible
18 Feb 5.9 21:50:35 10° NNW 21:51:17 13° N 21:51:17 13° N visible
19 Feb 5.6 19:56:18 10° N 19:57:04 10° NNE 19:57:38 10° NNE visible
19 Feb 5.7 21:38:37 10° NNW 21:39:40 14° N 21:39:40 14° N visible
